Weather History for KAUM - January, 2013

Change the Weather History Date:

Tuesday, January 29, 2013

  Actual Average (KRST) Record (KRST)
Temperature  
Mean Temperature 32 °F 16 °F  
Max Temperature 37 °F 24 °F 44 °F (1944)
Min Temperature 28 °F 8 °F -33 °F (1951)
Degree Days  
Heating Degree Days 32 49  
Month to date heating degree days 1434  
Since 1 July heating degree days 4512  
Cooling Degree Days 0 0  
Month to date cooling degree days 0  
Year to date cooling degree days 0  
Moisture  
Dew Point 31 °F    
Average Humidity 88    
Maximum Humidity 100    
Minimum Humidity 80    
Precipitation  
Precipitation 0.02 in 0.02 in 1.20 in (1909)
Month to date precipitation 0.80  
Year to date precipitation 0.80  
Snow  
Snow 0.00 in 0.40 in 4.60 in (1947)
Month to date snowfall 11.2  
Since 1 July snowfall 30.6  
Snow Depth -    
Sea Level Pressure  
Sea Level Pressure 29.58 in    
Wind  
Wind Speed 7 mph (NNW)    
Max Wind Speed 22 mph    
Max Gust Speed 29 mph    
Visibility 6 miles    
Events Fog , Snow , Thunderstorm    
T = Trace of Precipitation, MM = Missing Value Source: NWS Daily Summary

Daily Weather History Graph

Daily Weather History Graph

Search for Another Location

Airport or City:

Trip Planner

Search our weather history database for the weather conditions in past years. The results will help you decide how hot, cold, wet, or windy it might be!

Date:

Astronomy

Jan. 29, 2013 Rise Set
Actual Time 7:31 AM CST 5:19 PM CST
Civil Twilight 7:00 AM CST 5:49 PM CST
Nautical Twilight 6:25 AM CST 6:24 PM CST
Astronomical Twilight 5:52 AM CST 6:58 PM CST
Moon 8:23 PM CST (1/29) 8:21 AM CST (1/29)
Length of Visible Light 10h 49m
Length of Day
9h 48m
Waning Gibbous, 93% of the Moon is Illuminated
Jan 29
Waning Gibbous
Feb 3
Last Quarter
Feb 10
New
Feb 17
First Quarter
Feb 25
Full

Hourly Weather History & Observations

Time (CST) Temp. Windchill Dew Point Humidity Pressure Visibility Wind Dir Wind Speed Gust Speed Precip Events Conditions
12:00 AM 37.4 °F 32.8 °F 35.6 °F 93% 29.57 in 0.2 mi SSE 5.8 mph - N/A Thunderstorm Overcast
12:15 AM 37.4 °F 34.9 °F 35.6 °F 93% 29.57 in 0.2 mi South 3.5 mph - N/A   Overcast
12:35 AM 37.4 °F - 35.6 °F 93% 29.56 in 0.2 mi Calm Calm - N/A Fog , Thunderstorm Fog
12:55 AM 37.4 °F 30.3 °F 35.6 °F 93% 29.58 in 0.2 mi West 10.4 mph 17.3 mph N/A Snow , Thunderstorm Light Thunderstorms and Snow
1:16 AM 35.6 °F 32.8 °F 35.6 °F 100% 29.53 in 0.2 mi East 3.5 mph - N/A Fog Fog
1:35 AM 35.6 °F - 33.8 °F 93% 29.53 in 0.2 mi Calm Calm - 0.01 in Snow Light Snow
1:55 AM 35.6 °F - 33.8 °F 93% 29.52 in 0.2 mi Calm Calm - 0.01 in Fog , Thunderstorm Fog
2:16 AM 35.6 °F - 33.8 °F 93% 29.51 in 0.2 mi Calm Calm - N/A Fog Fog
2:55 AM 35.6 °F - 33.8 °F 93% 29.53 in 0.2 mi Calm Calm - N/A   Drizzle
3:16 AM 35.6 °F - 33.8 °F 93% 29.51 in 0.2 mi Calm Calm - 0.01 in   Drizzle
3:35 AM 35.6 °F - 33.8 °F 93% 29.51 in 0.2 mi Calm Calm - 0.01 in   Light Drizzle
4:00 AM 35.6 °F - 33.8 °F 93% 29.51 in 0.5 mi Calm Calm - N/A   Light Drizzle
4:16 AM 35.6 °F - 35.6 °F 100% 29.51 in 0.5 mi Calm Calm - N/A   Light Drizzle
4:35 AM 37.4 °F 34.9 °F 35.6 °F 93% 29.51 in 0.5 mi West 3.5 mph - N/A Fog Fog
5:15 AM 37.4 °F 31.4 °F 37.4 °F 100% 29.51 in 1.5 mi West 8.1 mph - N/A   Overcast
5:35 AM 37.4 °F 30.3 °F 35.6 °F 93% 29.51 in 1.2 mi NW 10.4 mph - N/A   Overcast
5:55 AM 35.6 °F 27.1 °F 33.8 °F 93% 29.52 in 1.0 mi WNW 12.7 mph - N/A   Overcast
6:15 AM 33.8 °F 25.3 °F 33.8 °F 100% 29.53 in 0.8 mi WNW 11.5 mph - N/A   Overcast
6:35 AM 33.8 °F 27.0 °F 32.0 °F 93% 29.54 in 1.8 mi WNW 8.1 mph - N/A   Overcast
6:55 AM 33.8 °F 27.7 °F 32.0 °F 93% 29.54 in 4.0 mi WNW 6.9 mph - N/A   Overcast
7:15 AM 33.8 °F 27.7 °F 32.0 °F 93% 29.54 in 5.0 mi NW 6.9 mph - N/A   Overcast
7:35 AM 33.8 °F 29.6 °F 32.0 °F 93% 29.55 in 7.0 mi NW 4.6 mph - N/A   Overcast
7:56 AM 33.8 °F 27.0 °F 32.0 °F 93% 29.55 in 7.0 mi NW 8.1 mph - N/A   Overcast
8:15 AM 33.8 °F 27.7 °F 32.0 °F 93% 29.55 in 5.0 mi NW 6.9 mph - N/A   Overcast
8:35 AM 33.8 °F 27.0 °F 32.0 °F 93% 29.56 in 5.0 mi NW 8.1 mph - N/A   Overcast
8:56 AM 32.0 °F 22.1 °F 30.2 °F 93% 29.56 in 7.0 mi NW 13.8 mph 17.3 mph N/A   Overcast
9:15 AM 32.0 °F 25.6 °F 30.2 °F 93% 29.58 in 7.0 mi WNW 6.9 mph - N/A   Overcast
9:35 AM 32.0 °F 24.8 °F 30.2 °F 93% 29.60 in 7.0 mi WNW 8.1 mph - N/A   Overcast
9:56 AM 32.0 °F 24.2 °F 30.2 °F 93% 29.61 in 4.0 mi WNW 9.2 mph - N/A   Overcast
10:15 AM 33.8 °F 27.7 °F 30.2 °F 87% 29.62 in 4.0 mi WNW 6.9 mph - N/A   Overcast
10:35 AM 33.8 °F 26.4 °F 30.2 °F 87% 29.60 in 7.0 mi NW 9.2 mph - N/A   Overcast
10:55 AM 33.8 °F 26.4 °F 30.2 °F 87% 29.64 in 7.0 mi NW 9.2 mph - N/A   Overcast
11:15 AM 33.8 °F 27.0 °F 32.0 °F 93% 29.63 in 7.0 mi NW 8.1 mph - N/A   Overcast
11:35 AM 33.8 °F 26.4 °F 32.0 °F 93% 29.63 in 7.0 mi NW 9.2 mph - N/A   Overcast
11:55 AM 33.8 °F 25.8 °F 32.0 °F 93% 29.62 in 7.0 mi NW 10.4 mph - N/A   Overcast
12:15 PM 33.8 °F 25.8 °F 32.0 °F 93% 29.60 in 10.0 mi NNW 10.4 mph - N/A   Overcast
12:35 PM 33.8 °F 26.4 °F 30.2 °F 87% 29.61 in 7.0 mi NW 9.2 mph - N/A   Overcast
12:55 PM 33.8 °F 25.8 °F 30.2 °F 87% 29.60 in 5.0 mi NW 10.4 mph - N/A   Overcast
1:15 PM 33.8 °F 27.7 °F 30.2 °F 87% 29.58 in 7.0 mi NNW 6.9 mph - N/A   Overcast
1:35 PM 33.8 °F 26.4 °F 30.2 °F 87% 29.58 in 10.0 mi NNW 9.2 mph 17.3 mph N/A   Overcast
1:55 PM 33.8 °F 25.8 °F 30.2 °F 87% 29.58 in 7.0 mi NNW 10.4 mph 18.4 mph N/A   Overcast
2:15 PM 33.8 °F 26.4 °F 30.2 °F 87% 29.57 in 10.0 mi NNW 9.2 mph 19.6 mph N/A   Overcast
2:36 PM 33.8 °F 27.7 °F 28.4 °F 81% 29.59 in 10.0 mi North 6.9 mph - N/A   Overcast
2:55 PM 33.8 °F 26.4 °F 28.4 °F 81% 29.58 in 10.0 mi North 9.2 mph - N/A   Overcast
3:15 PM 33.8 °F 27.7 °F 28.4 °F 81% 29.59 in 10.0 mi North 6.9 mph - N/A   Overcast
3:55 PM 33.8 °F 25.8 °F 28.4 °F 81% 29.59 in 10.0 mi North 10.4 mph - N/A   Overcast
4:15 PM 33.8 °F 26.4 °F 28.4 °F 81% 29.60 in 10.0 mi North 9.2 mph - N/A   Overcast
4:36 PM 33.8 °F 26.4 °F 28.4 °F 81% 29.59 in 10.0 mi North 9.2 mph - N/A   Overcast
4:55 PM 33.8 °F 27.0 °F 28.4 °F 81% 29.58 in 10.0 mi North 8.1 mph - N/A   Overcast
5:15 PM 33.8 °F 25.3 °F 28.4 °F 81% 29.59 in 10.0 mi NNW 11.5 mph 16.1 mph N/A   Overcast
5:36 PM 33.8 °F 26.4 °F 28.4 °F 81% 29.61 in 10.0 mi North 9.2 mph 18.4 mph N/A   Overcast
5:55 PM 33.8 °F 25.8 °F 28.4 °F 81% 29.63 in 10.0 mi NNW 10.4 mph - N/A   Overcast
6:15 PM 33.8 °F 25.8 °F 28.4 °F 81% 29.62 in 10.0 mi North 10.4 mph 19.6 mph N/A   Overcast
6:36 PM 33.8 °F 25.8 °F 28.4 °F 81% 29.59 in 10.0 mi North 10.4 mph 16.1 mph N/A   Overcast
6:55 PM 33.8 °F 25.8 °F 28.4 °F 81% 29.58 in 10.0 mi North 10.4 mph - N/A   Overcast
7:15 PM 33.8 °F 25.3 °F 30.2 °F 87% 29.61 in 10.0 mi North 11.5 mph 20.7 mph N/A   Overcast
7:35 PM 33.8 °F 25.3 °F 28.4 °F 81% 29.61 in 10.0 mi NNW 11.5 mph 19.6 mph N/A   Overcast
7:55 PM 33.8 °F 24.3 °F 28.4 °F 81% 29.64 in 10.0 mi NNW 13.8 mph 18.4 mph N/A   Overcast
8:15 PM 33.8 °F 24.8 °F 28.4 °F 81% 29.63 in 10.0 mi North 12.7 mph 18.4 mph N/A   Overcast
8:35 PM 33.8 °F 25.8 °F 28.4 °F 81% 29.59 in 10.0 mi North 10.4 mph 24.2 mph N/A   Overcast
8:55 PM 32.0 °F 23.0 °F 28.4 °F 87% 29.57 in 10.0 mi North 11.5 mph 19.6 mph N/A   Overcast
9:15 PM 32.0 °F 21.6 °F 28.4 °F 87% 29.61 in 7.0 mi North 15.0 mph 21.9 mph N/A   Overcast
9:35 PM 32.0 °F 23.6 °F 26.6 °F 80% 29.62 in 10.0 mi North 10.4 mph 25.3 mph N/A   Overcast
9:55 PM 32.0 °F 22.1 °F 26.6 °F 80% 29.63 in 10.0 mi North 13.8 mph 23.0 mph N/A   Overcast
10:16 PM 30.2 °F 19.3 °F 26.6 °F 86% 29.64 in 10.0 mi North 15.0 mph 18.4 mph N/A   Overcast
10:35 PM 30.2 °F 18.9 °F 26.6 °F 86% 29.61 in 10.0 mi North 16.1 mph 20.7 mph N/A   Overcast
10:55 PM 30.2 °F 19.8 °F 24.8 °F 80% 29.61 in 10.0 mi North 13.8 mph 27.6 mph N/A   Overcast
11:16 PM 30.2 °F 18.9 °F 24.8 °F 80% 29.65 in 10.0 mi NNW 16.1 mph 27.6 mph N/A   Overcast
11:35 PM 28.4 °F 16.2 °F 24.8 °F 86% 29.64 in 10.0 mi North 17.3 mph 26.5 mph N/A   Overcast
11:55 PM 28.4 °F 14.7 °F 23.0 °F 80% 29.61 in 10.0 mi North 21.9 mph 28.8 mph N/A   Overcast